P/2003 QX29 (NEAT)                                                    

Epoch 2002 Oct. 13.0 TT = JDT 2452560.5  

T 2002 Oct. 26.81789 TT                                 Nakano

q   4.2396652            (2000.0)            P               Q

n   0.04335445     Peri.   37.29773     +0.51635542     +0.83347039

a   8.0250352      Node   264.58967     -0.82562121     +0.42348736

e   0.4716951      Incl.   11.39748     -0.22743504     +0.35494446

P  22.73 (+/- 0.18 day)

From 96 observations 2002 June 11-2003 Oct. 20, mean residual 0".64.

Residuals in seconds of arc 

2002/                     030825 673  0.5+  0.8+    030914 213  0.6+  0.3-  

020611 644  0.8+  0.4+    030825 673  0.7+  0.9+    030914 213  0.2+  0.2-  

020611 644  0.3-  0.2-    030825 673  0.6+  1.0+    030916 A03 (9.5-  0.9-) 

020611 644  0.3-  0.6-    030825 621  0.6-  1.5-    030917 A03 (0.9+  4.5+) 

2003/                     030826 621  0.5+  1.6-    030918 204  0.1+  0.1-  

030823 644  0.4-  0.1+    030826 621  0.2+  0.1-    030918 204  1.0-  0.0   

030823 644  0.5-  0.4+    030826 621  1.3+  1.7-    030918 204  0.1+  0.3+  

030823 644  0.1-  0.5+    030826 621  1.0+  0.9-    030927 H41  0.7+  0.1+  

030823 246  0.1-  0.5+    030831 807  0.1-  0.0     030928 691  0.1+  0.1-  

030823 246  0.1-  0.7+    030831 807  0.1-  0.0     030928 691  0.1+  0.1-  

030823 246  0.8-  0.1+    030831 807  0.1+  0.2+    030928 H41  0.1-  0.5-  

030823 246  0.3-  0.3+    030831 807  0.4-  1.1+    030928 691  0.1-  0.6+  

030823 246  0.7-  0.4+    030831 807  0.1+  1.0+    030928 H41  1.2-  1.2-  

030823 587  1.5+  0.8-    030831 807  0.1+  0.5+    030928 118 (0.2+  2.2+) 

030823 151  0.5+  0.6+    030901 673  0.6+  0.0     030928 118  1.0-  0.4+  

030823 151  0.0   0.5+    030901 673  0.3-  0.3+    030930 360  0.7-  0.3-  

030823 151  0.4+  0.4+    030901 673  0.2+  0.5+    030930 360  1.1-  0.1+  

030823 151  0.6+  0.9+    030901 673  1.5+  0.7+    030930 360  0.1-  0.7-  

030823 587  1.4-  0.7-    030901 673  0.9+  0.7+    031002 A33 (7.3+  1.9-) 

030823 587  1.0-  0.8-    030901 673  0.8+  0.8+    031009 170  0.8-  0.5-  

030823 106  0.4-  0.9-    030901 673  0.3+  0.4+    031009 170  0.7+  0.3-  

030823 106  1.0-  0.8-    030901 673  0.4+  0.6+    031009 170  0.9+  0.8-  

030823 106  0.0   0.3-    030903 215  0.5-  0.0     031009 170  0.7+  0.5-  

030824 859  0.5-  0.0     030904 360  0.1-  0.3-    031017 360  0.3+  0.7+  

030824 J87  0.4-  0.0     030904 360  0.2+  0.5-    031017 360  0.6+  0.4+  

030824 J87 (3.0-  3.1-)   030904 360  0.0   0.0     031017 360  0.3+  0.0   

030824 246  0.6-  0.0     030905 204  1.3+  1.6-    031018 715  0.1+  0.2+  

030824 246  0.7-  0.4+    030905 246  0.2-  0.4+    031018 715  0.2+  0.2-  

030824 246 (2.1-  0.8-)   030905 246  0.9-  0.2+    031018 715  0.1+  0.4-  

030824 246  0.4-  0.0     030905 246  0.7-  0.3+    031019 360  0.6+  0.4+  

030824 621  1.4-  0.6-    030905 246 (2.1-  0.6-)   031019 360  0.3+  0.2+  

030824 621  0.9-  0.8+    030913 715  0.2-  0.4-    031019 360  0.4+  0.7+  

030824 621  0.4+  0.1-    030913 715 (2.2-  1.0-)   031020 213  1.5-  0.8-  

030824 621  0.5-  0.4+    030913 715  0.2+  0.1-    031020 213  0.1-  1.3-  

030824 621  0.8-  0.7+    030914 213  1.2+  0.1-                            

030825 673  0.7+  0.6+    030914 213  0.9+  0.3-                            



NAKANO

         **** Don't distribute anyone except personal use only ****

                (C) Copyright 2003 OAA/ComputingSection

write mail from CFAD0::NAKANO on 2003-11-20 02:00:59(JST).

 

◎P/2003 QX29の軌道と予報位置です



 10月17日に久万の中村彰正氏が,氏の9月30日以来の観測を行ないました.

氏の CCD全光度は19.6等でした.予報光度は,少し明るいかも知れません.



    P/2003 QX29 (NEAT)                                                    

T 2002 Oct. 26.98412 TT                                 Nakano

q   4.2403520            (2000.0)            P               Q

n   0.04338547     Peri.   37.34574     +0.51676176     +0.83322802

a   8.0212095      Node   264.56967     -0.82542386     +0.42392233

e   0.4713575      Incl.   11.39550     -0.22722838     +0.35499427

P  22.72 (+/- 1.07 day)

From 81 observations 2003 Aug. 23-Oct. 17.

 

Date/        TT  R.A.(2000) Decl.     Delta   r     Daily motion  Mag.  Moon Age

              h    h  m       。  ,                      ,  / PA 。  m1      。

2003 Oct. 15 12  22 20.11  +04 08.8   3.924  4.684     3.2 / 209  18.7   99  .78

          16 12  22 20.01  +04 05.9   3.937  4.686     3.1 / 206  18.7  110  .69

          17 12  22 19.92  +04 03.1   3.950  4.688     3.0 / 203  18.7  122  .60

          18 12  22 19.84  +04 00.4   3.963  4.691     2.9 / 200  18.7  133  .50

          19 12  22 19.77  +03 57.7   3.976  4.693     2.8 / 197  18.7  144  .40

          20 12  22 19.72  +03 55.0   3.990  4.695     2.7 / 193  18.7  154  .30

          21 12  22 19.68  +03 52.4   4.004  4.698     2.6 / 189  18.7  161  .21

          22 12  22 19.65  +03 49.9   4.018  4.700     2.5 / 185  18.7  160  .13

          23 12  22 19.64  +03 47.4   4.032  4.702     2.4 / 180  18.8  151  .06

          24 12  22 19.64  +03 44.9   4.046  4.705     2.4 / 175  18.8  139  .02

          25 12  22 19.65  +03 42.6   4.060  4.707     2.4 / 170  18.8  125  .00

          26 12  22 19.68  +03 40.2   4.075  4.709     2.3 / 165  18.8  111  .01

          27 12  22 19.72  +03 38.0   4.090  4.712     2.3 / 160  18.8   97  .06

          28 12  22 19.77  +03 35.8   4.104  4.714     2.4 / 155  18.8   83  .13

          29 12  22 19.84  +03 33.7   4.119  4.716     2.4 / 150  18.8   69  .21

          30 12  22 19.92  +03 31.6   4.135  4.719     2.4 / 145  18.8   55  .32

          31 12  22 20.01  +03 29.6   4.150  4.721     2.5 / 141  18.8   43  .43

     Nov.  1 12  22 20.12  +03 27.7   4.165  4.724     2.6 / 136  18.8   31  .53

           2 12  22 20.23  +03 25.8   4.181  4.726     2.7 / 132  18.9   22  .64

           3 12  22 20.37  +03 24.0   4.197  4.728     2.8 / 128  18.9   18  .73

           4 12  22 20.51  +03 22.3   4.212  4.731     2.9 / 125  18.9   22  .82

           5 12  22 20.67  +03 20.6   4.228  4.733     3.0 / 122  18.9   30  .89

           6 12  22 20.84  +03 19.0   4.244  4.735     3.1 / 119  18.9   40  .94

           7 12  22 21.02  +03 17.5   4.261  4.738     3.3 / 116  18.9   51  .98

           8 12  22 21.22  +03 16.1   4.277  4.740     3.4 / 114  18.9   62 1.00

           9 12  22 21.43  +03 14.7   4.293  4.743     3.6 / 111  18.9   73 1.00

          10 12  22 21.65  +03 13.5   4.310  4.745     3.7 / 109  18.9   85  .98

          11 12  22 21.88  +03 12.2   4.326  4.748     3.9 / 107  18.9   96  .95

          12 12  22 22.13  +03 11.1   4.343  4.750     4.0 / 105  19.0  107  .90

          13 12  22 22.39  +03 10.0   4.360  4.752     4.2 / 104  19.0  118  .83

          14 12  22 22.66  +03 09.1   4.377  4.755     4.3 / 102  19.0  130  .76

          15 12  22 22.94  +03 08.1   4.394  4.757     4.5 / 101  19.0  141  .67

          16 12  22 23.24  +03 07.3   4.411  4.760     4.7 /  99  19.0  151  .57

          17 12  22 23.54  +03 06.6   4.428  4.762     4.8 /  98  19.0  160  .47

          18 12  22 23.86  +03 05.9   4.445  4.765     5.0 /  97  19.0  163  .36

          19 12  22 24.19  +03 05.3   4.462  4.767     5.2 /  96  19.0  157  .26

          20 12  22 24.53  +03 04.7   4.479  4.769     5.3 /  95  19.0  146  .17

          21 12  22 24.89  +03 04.3   4.497  4.772     5.5 /  94  19.1  133  .09

          22 12  22 25.25  +03 03.9   4.514  4.774     5.6 /  93  19.1  119  .03

          23 12  22 25.63  +03 03.6   4.532  4.777     5.8 /  92  19.1  105  .00

          24 12  22 26.02  +03 03.4   4.549  4.779     6.0 /  91  19.1   90  .00

          25 12  22 26.42  +03 03.3   4.567  4.782     6.1 /  90  19.1   76  .04

          26 12  22 26.83  +03 03.3   4.584  4.784     6.3 /  90  19.1   62  .10

          27 12  22 27.25  +03 03.3   4.602  4.787     6.5 /  89  19.1   48  .18

          28 12  22 27.68  +03 03.4   4.619  4.789     6.6 /  88  19.1   36  .27

          29 12  22 28.12  +03 03.6   4.637  4.792     6.8 /  88  19.1   25  .37

          30 12  22 28.58  +03 03.9   4.655  4.794     6.9 /  87  19.1   18  .48

     Dec.  1 12  22 29.04  +03 04.2   4.672  4.797     7.1 /  87  19.2   18  .58

NAKANO

         **** Don't distribute anyone except personal use only ****

                (C) Copyright 2003 OAA/ComputingSection

write mail from CFAD0::NAKANO on 2003-10-19 02:27:18(JST).

 

    P/2003 QX29 (NEAT)                                                    

T 2002 Nov. 9.41219 TT                                  Nakano

q   4.2840194            (2000.0)            P               Q

n   0.04474515     Peri.   39.88065     +0.54925971     +0.81224451

a   7.8578801      Node   264.30047     -0.80819284     +0.45657874

e   0.4548123      Incl.   11.38349     -0.21245728     +0.36303540

P  22.03 (+/-19.54 day)

From 61 observations 2003 Aug. 23-Sept. 5.



NAKANO

         **** Don't distribute anyone except personal use only ****

                (C) Copyright 2003 OAA/ComputingSection

write mail from CFAD0::NAKANO on 2003-09-14 04:53:52(JST).



◎P/2003 QX29の軌道と予報位置です



    P/2003 QX29 (NEAT)                                                    

T 2002 Oct. 20.36802 TT                                 Nakano

q   4.2753467            (2000.0)            P               Q

n   0.04443447     Peri.   36.95648     +0.51402698     +0.83477317

a   7.8944654      Node   264.77211     -0.82674938     +0.42084641

e   0.4584375      Incl.   11.42769     -0.22860824     +0.35502402

P  22.18 (+/-96.31 day)

From 51 observations 2003 Aug. 23-Sept.1.

 

Date/        TT  R.A.(2000) Decl.     Delta   r     Daily motion  Mag.  Moon Age

              h    h  m       。  ,                      ,  / PA 。  m1      。

2003 Sept. 5 14  22 32.89  +06 12.4   3.646  4.630     7.3 / 249  18.5   65  .72

           6 14  22 32.43  +06 09.8   3.648  4.632     7.3 / 248  18.5   52  .82

